Location: Unspecified
(0.0000°N, 0.0000°E)
Time: 07:09:35
(UTC+00:00)

KORSAT-3 - Visible Passes

Search period start: 18 April 2026 00:00
Search period end: 28 April 2026 00:00
Orbit: 568 x 576 km, 45.4° (Epoch: 17 April)

Date Brightness Start Highest point End Pass type
(mag) Time Alt. Az. Time Alt. Az. Time Alt. Az.
18 Apr ? 04:58:00 12° SSW 05:01:46 53° SE 05:05:57 10° NE visible
19 Apr ? 05:00:07 20° SW 05:03:02 77° NW 05:07:19 10° NE visible
20 Apr ? 03:26:03 11° E 03:26:03 11° E 03:26:14 10° E visible
20 Apr ? 05:02:11 23° W 05:04:18 38° NW 05:08:17 10° NNE visible
21 Apr ? 03:28:01 13° ENE 03:28:01 13° ENE 03:28:41 10° ENE visible
21 Apr ? 05:04:09 17° WNW 05:05:35 20° NW 05:08:47 10° N visible
22 Apr ? 03:29:54 13° NE 03:29:54 13° NE 03:30:26 10° NE visible
22 Apr ? 05:06:02 10° WNW 05:06:54 11° NW 05:08:00 10° NNW visible
23 Apr ? 03:31:41 10° NE 03:31:41 10° NE 03:31:46 10° NE visible
